Regional Weather Roundup
Issued by NWS

Home | Current Version | Previous Version | Text Only | Print | Product List | Glossary Off
Versions: 1 2 3 4 5 6 7 8 9 10 11 12 13 14 15 16 17 18 19 20 21 22 23 24 25 26 27

000
ASUS45 KBOU 280107
RWRCO

WEATHER ROUNDUP FOR COLORADO
NATIONAL WEATHER SERVICE DENVER/BOULDER CO
700 PM MDT FRI MAY 27 2016

NOTE: "FAIR" INDICATES FEW OR NO CLOUDS BELOW 12000 FEET WITH NO
SIGNIFICANT WEATHER AND/OR OBSTRUCTIONS TO VISIBILITY.

COZ001>005-013-030-031-280200-
...NORTHWEST COLORADO...

CITY           SKY/WX    TMP DP  RH WIND       PRES   REMARKS
CRAIG          FAIR      52  42  69 E12       29.97F
HAYDEN         CLOUDY    46  37  71 SE12      29.99F
MEEKER         FAIR      52  41  66 CALM      29.98F
MOUNT WERNER   NOT AVBL
STEAMBOAT SPGS FAIR      45  39  79 E5        30.01S
WALDEN         FAIR      46  36  66 CALM      30.02S
$$

COZ006>008-011-280200-
...WEST CENTRAL VALLEYS...

CITY           SKY/WX    TMP DP  RH WIND       PRES   REMARKS
GRAND JUNCTION FAIR      64  35  34 NE24      29.87S
MONTROSE       CLOUDY    62  31  31 W9        29.96R
EAGLE          CLOUDY    48  41  76 SW10      30.04R
RIFLE          CLOUDY    56  36  47 SW13      29.95S
DELTA          FAIR      69  33  26 S6        29.91S
NUCLA          PTSUNNY   63  32  31 NE7       29.96R
$$

COZ017>023-064>068-280200-
...SOUTHWEST COLORADO...

CITY           SKY/WX    TMP DP  RH WIND       PRES   REMARKS
DURANGO        FAIR      57  31  37 W12       29.97R
CORTEZ         FAIR      67  25  20 CALM      29.92R
PAGOSA SPRINGS FAIR      49  39  68 SE6       30.04R
TELLURIDE      CLOUDY    51  28  41 CALM      30.09R
WOLF CREEK PAS FAIR      30  28  93 CALM      30.20R THUNDER
$$

COZ009-010-012-014-032>034-037-058>063-280200-
...CENTRAL COLORADO...

CITY           SKY/WX    TMP DP  RH WIND       PRES   REMARKS
ASPEN          CLOUDY    50  32  50 N3        30.03S
BUENA VISTA    CLOUDY    49  31  50 NW24G31   30.01R THUNDER
COPPER MTN     NOT AVBL
BERTHOUD PASS  FAIR      25  14  63 NW14G22   30.15R WCI  13
COTTONWOOD PAS CLOUDY    45  28  53 W12G22    30.07R THUNDER
GUNNISON       PTSUNNY   46  36  66 S3        30.06R
KREMMLING      RAIN      43  34  70 N9G17     30.03R
LEADVILLE      SNOW      32  31  96 N3        30.11R VSB 1/2
MONARCH PASS   CLOUDY    30  28  93 W22G30    30.26R VSB<1/4 WCI  17
SALIDA         CLOUDY    51  39  63 SW6       30.07R
SUNLIGHT       PTSUNNY   36  34  93 CALM      30.18R
WILKERSON PASS CLOUDY    32  32 100 NE8       30.14R THUNDER WCI  25
$$

COZ069>075-280200-
...SAN LUIS VALLEY/SANGRE DE CRISTO MOUNTAINS...

CITY           SKY/WX    TMP DP  RH WIND       PRES   REMARKS
ALAMOSA        LGT RAIN  47  37  68 W12       30.02R
LA VETA PASS   FAIR      39  34  81 S3        30.09R THUNDER
SAGUACHE       FAIR      52  32  46 NW23G32   30.00R
$$

COZ035-036-038>040-280200-
...NORTHERN COLORADO FRONT RANGE...

CITY           SKY/WX    TMP DP  RH WIND       PRES   REMARKS
DENVER INTL AP PTSUNNY   57  40  52 NW3       29.93R
DMNS CITY PARK   N/A     56  44  63 W10       29.93S
AURORA         PTSUNNY   53  44  69 NW7       29.95R
FRONT RANGE AP PTSUNNY   55  43  62 N8        29.94R
ERIE MUNI ARPT LGT RAIN  55  47  74 W8        29.93R
BOULDER MUN AP PTSUNNY   55  45  67 W5        29.94R
CENTENNIAL     PTSUNNY   52  40  63 W13G24    29.95R
BROOMFIELD     PTSUNNY   57  45  62 W6        29.95
FORT COLLINS   FAIR      34 N/A N/A CALM      29.94R
LONGMONT       CLOUDY    58  49  72 W6        29.95R
$$

COZ041-046-047-076>085-087-088-280200-
...PIKES PEAK/PALMER DIVIDE AND SOUTHERN FOOTHILLS...

CITY           SKY/WX    TMP DP  RH WIND       PRES   REMARKS
COLO. SPRINGS  PTSUNNY   55  36  48 N20       29.95R
A. F. ACADEMY  PTSUNNY   52  37  58 N12       29.96R
SCHRIEVER AFB  NOT AVBL
ELLICOTT       FAIR     N/A N/A N/A N16       29.93R
FALCON         PTSUNNY   51  37  57 N14       29.98R
FORT CARSON    CLOUDY    57  37  46 N16G22    29.92R
LIMON          FAIR      52  43  71 N10       29.90R
MONUMENT HILL  FAIR      46  37  71 N9        30.00R
TRINIDAD       PTSUNNY   57  37  47 N10       29.93R
$$

COZ042>045-048>051-090-091-280200-
...NORTHEAST COLORADO...

CITY           SKY/WX    TMP DP  RH WIND       PRES   REMARKS
GREELEY ARPT   FAIR      57  43  58 NE6       29.91R
AKRON          FAIR      54  46  74 N12       29.86R
BURLINGTON     FAIR      55  49  80 NE16      29.81S
WRAY           FAIR      57  46  67 E9        29.81S
STERLING       FAIR      57  46  67 N10       29.85R
HOLYOKE        FAIR      59  50  72 NE12      29.82R
FORT MORGAN    FAIR      56  42  60 N7        29.89R
$$

COZ086-089-092>099-280200-
...SOUTHEAST COLORADO...

CITY           SKY/WX    TMP DP  RH WIND       PRES   REMARKS
PUEBLO         FAIR      63  42  46 NE13      29.87R
LA JUNTA       FAIR      59  45  59 N12       29.86R
LAMAR          FAIR      59  46  62 N17G28    29.79R
SPRINGFIELD      N/A     58  43  57 NW20G30   29.82R
$$




USA.gov is the U.S. government's official web portal to all federal, state and local government web resources and services.